#Datum;Uhrzeit;WR;Pac;DaySum;Status;WR;Pac;DaySum;Status;Pdc1;Udc;Temp;WR;Pac;DaySum;Status;Pdc1;Udc;Temp;WR;Pac;DaySum;Status;Pdc1;Udc;Temp;WR;Pac;DaySum;Status;Pdc1;Pdc2;Udc1;Udc2;Temp;WR;Pac;DaySum;Status;Pdc1;Pdc2;Udc1;Udc2;Temp;WR;Pac;DaySum;Status;Pdc1;Udc;Temp;WR;Pac;DaySum;Status;Pdc1;Udc;Temp;WR;Pac;DaySum;Status;Pdc1;Udc;Temp
23.10.17;23:55:00;1;204;9904;0;2;0;4560;0;0;0;0;3;0;2855;0;0;0;0;4;0;4015;0;0;0;0;5;0;9225;0;0;0;0;0;0;6;0;7023;0;0;0;0;0;0;7;0;5575;0;0;0;0;8;0;5490;0;0;0;0;9;0;2942;0;0;0;0
23.10.17;23:50:00;1;204;9887;0;2;0;4560;0;0;0;0;3;0;2855;0;0;0;0;4;0;4015;0;0;0;0;5;0;9225;0;0;0;0;0;0;6;0;7023;0;0;0;0;0;0;7;0;5575;0;0;0;0;8;0;5490;0;0;0;0;9;0;2942;0;0;0;0
23.10.17;23:45:00;1;245;9870;0;2;0;4560;0;0;0;0;3;0;2855;0;0;0;0;4;0;4015;0;0;0;0;5;0;9225;0;0;0;0;0;0;6;0;7023;0;0;0;0;0;0;7;0;5575;0;0;0;0;8;0;5490;0;0;0;0;9;0;2942;0;0;0;0
23.10.17;23:40:00;1;253;9850;0;2;0;4560;0;0;0;0;3;0;2855;0;0;0;0;4;0;4015;0;0;0;0;5;0;9225;0;0;0;0;0;0;6;0;7023;0;0;0;0;0;0;7;0;5575;0;0;0;0;8;0;5490;0;0;0;0;9;0;2942;0;0;0;0
23.10.17;23:35:00;1;255;9828;0;2;0;4560;0;0;0;0;3;0;2855;0;0;0;0;4;0;4015;0;0;0;0;5;0;9225;0;0;0;0;0;0;6;0;7023;0;0;0;0;0;0;7;0;5575;0;0;0;0;8;0;5490;0;0;0;0;9;0;2942;0;0;0;0
23.10.17;23:30:00;1;270;9807;0;2;0;4560;0;0;0;0;3;0;2855;0;0;0;0;4;0;4015;0;0;0;0;5;0;9225;0;0;0;0;0;0;6;0;7023;0;0;0;0;0;0;7;0;5575;0;0;0;0;8;0;5490;0;0;0;0;9;0;2942;0;0;0;0
23.10.17;23:25:00;1;297;9784;0;2;0;4560;0;0;0;0;3;0;2855;0;0;0;0;4;0;4015;0;0;0;0;5;0;9225;0;0;0;0;0;0;6;0;7023;0;0;0;0;0;0;7;0;5575;0;0;0;0;8;0;5490;0;0;0;0;9;0;2942;0;0;0;0
23.10.17;23:20:00;1;300;9759;0;2;0;4560;0;0;0;0;3;0;2855;0;0;0;0;4;0;4015;0;0;0;0;5;0;9225;0;0;0;0;0;0;6;0;7023;0;0;0;0;0;0;7;0;5575;0;0;0;0;8;0;5490;0;0;0;0;9;0;2942;0;0;0;0
23.10.17;23:15:00;1;276;9734;0;2;0;4560;0;0;0;0;3;0;2855;0;0;0;0;4;0;4015;0;0;0;0;5;0;9225;0;0;0;0;0;0;6;0;7023;0;0;0;0;0;0;7;0;5575;0;0;0;0;8;0;5490;0;0;0;0;9;0;2942;0;0;0;0
23.10.17;23:10:00;1;269;9712;0;2;0;4560;0;0;0;0;3;0;2855;0;0;0;0;4;0;4015;0;0;0;0;5;0;9225;0;0;0;0;0;0;6;0;7023;0;0;0;0;0;0;7;0;5575;0;0;0;0;8;0;5490;0;0;0;0;9;0;2942;0;0;0;0
23.10.17;23:05:00;1;275;9689;0;2;0;4560;0;0;0;0;3;0;2855;0;0;0;0;4;0;4015;0;0;0;0;5;0;9225;0;0;0;0;0;0;6;0;7023;0;0;0;0;0;0;7;0;5575;0;0;0;0;8;0;5490;0;0;0;0;9;0;2942;0;0;0;0
23.10.17;23:00:00;1;302;9666;0;2;0;4560;0;0;0;0;3;0;2855;0;0;0;0;4;0;4015;0;0;0;0;5;0;9225;0;0;0;0;0;0;6;0;7023;0;0;0;0;0;0;7;0;5575;0;0;0;0;8;0;5490;0;0;0;0;9;0;2942;0;0;0;0
23.10.17;22:55:00;1;261;9641;0;2;0;4560;0;0;0;0;3;0;2855;0;0;0;0;4;0;4015;0;0;0;0;5;0;9225;2;0;0;0;0;0;6;0;7023;2;0;0;0;0;0;7;0;5575;0;0;0;0;8;0;5490;0;0;0;0;9;0;2942;0;0;0;0
23.10.17;22:50:00;1;261;9619;0;2;0;4560;0;0;0;0;3;0;2855;0;0;0;0;4;0;4015;0;0;0;0;5;0;9225;2;0;0;0;0;0;6;0;7023;2;0;0;0;0;0;7;0;5575;0;0;0;0;8;0;5490;0;0;0;0;9;0;2942;0;0;0;0
23.10.17;22:45:00;1;262;9597;0;2;0;4560;0;0;0;0;3;0;2855;0;0;0;0;4;0;4015;0;0;0;0;5;0;9225;2;0;0;0;0;0;6;0;7023;2;0;0;0;0;0;7;0;5575;0;0;0;0;8;0;5490;0;0;0;0;9;0;2942;0;0;0;0
23.10.17;22:40:00;1;263;9575;0;2;0;4560;0;0;0;0;3;0;2855;0;0;0;0;4;0;4015;0;0;0;0;5;0;9225;2;0;0;0;0;0;6;0;7023;2;0;0;0;0;0;7;0;5575;0;0;0;0;8;0;5490;0;0;0;0;9;0;2942;0;0;0;0
23.10.17;22:35:00;1;337;9553;0;2;0;4560;0;0;0;0;3;0;2855;0;0;0;0;4;0;4015;0;0;0;0;5;0;9225;2;0;0;0;0;0;6;0;7023;2;0;0;0;0;0;7;0;5575;0;0;0;0;8;0;5490;0;0;0;0;9;0;2942;0;0;0;0
23.10.17;22:30:00;1;386;9524;0;2;0;4560;0;0;0;0;3;0;2855;0;0;0;0;4;0;4015;0;0;0;0;5;0;9225;2;0;0;0;0;0;6;0;7023;2;0;0;0;0;0;7;0;5575;0;0;0;0;8;0;5490;0;0;0;0;9;0;2942;0;0;0;0
23.10.17;22:25:00;1;447;9492;0;2;0;4560;0;0;0;0;3;0;2855;0;0;0;0;4;0;4015;0;0;0;0;5;0;9225;2;0;0;0;0;0;6;0;7023;2;0;0;0;0;0;7;0;5575;0;0;0;0;8;0;5490;0;0;0;0;9;0;2942;0;0;0;0
23.10.17;22:20:00;1;412;9454;0;2;0;4560;0;0;0;0;3;0;2855;0;0;0;0;4;0;4015;0;0;0;0;5;0;9225;2;0;0;0;0;0;6;0;7023;2;0;0;0;0;0;7;0;5575;0;0;0;0;8;0;5490;0;0;0;0;9;0;2942;0;0;0;0
23.10.17;22:15:00;1;395;9420;0;2;0;4560;0;0;0;0;3;0;2855;0;0;0;0;4;0;4015;0;0;0;0;5;0;9225;2;0;0;0;0;0;6;0;7023;2;0;0;0;0;0;7;0;5575;0;0;0;0;8;0;5490;0;0;0;0;9;0;2942;0;0;0;0
23.10.17;22:10:00;1;416;9386;0;2;0;4560;0;0;0;0;3;0;2855;0;0;0;0;4;0;4015;0;0;0;0;5;0;9225;2;0;0;0;0;0;6;0;7023;2;0;0;0;0;0;7;0;5575;0;0;0;0;8;0;5490;0;0;0;0;9;0;2942;0;0;0;0
23.10.17;22:05:00;1;417;9352;0;2;0;4560;0;0;0;0;3;0;2855;0;0;0;0;4;0;4015;0;0;0;0;5;0;9225;2;0;0;0;0;0;6;0;7023;2;0;0;0;0;0;7;0;5575;0;0;0;0;8;0;5490;0;0;0;0;9;0;2942;0;0;0;0
23.10.17;22:00:00;1;419;9317;0;2;0;4560;0;0;0;0;3;0;2855;0;0;0;0;4;0;4015;0;0;0;0;5;0;9225;2;0;0;0;0;0;6;0;7023;2;0;0;0;0;0;7;0;5575;0;0;0;0;8;0;5490;0;0;0;0;9;0;2942;0;0;0;0
23.10.17;21:55:00;1;420;9282;0;2;0;4560;0;0;0;0;3;0;2855;0;0;0;0;4;0;4015;0;0;0;0;5;0;9225;2;0;0;0;0;0;6;0;7023;2;0;0;0;0;0;7;0;5575;0;0;0;0;8;0;5490;0;0;0;0;9;0;2942;0;0;0;0
23.10.17;21:50:00;1;422;9247;0;2;0;4560;0;0;0;0;3;0;2855;0;0;0;0;4;0;4015;0;0;0;0;5;0;9225;2;0;0;0;0;0;6;0;7023;2;0;0;0;0;0;7;0;5575;0;0;0;0;8;0;5490;0;0;0;0;9;0;2942;0;0;0;0
23.10.17;21:45:00;1;499;9211;0;2;0;4560;0;0;0;0;3;0;2855;0;0;0;0;4;0;4015;0;0;0;0;5;0;9225;2;0;0;0;0;0;6;0;7023;2;0;0;0;0;0;7;0;5575;0;0;0;0;8;0;5490;0;0;0;0;9;0;2942;0;0;0;0
23.10.17;21:40:00;1;493;9169;0;2;0;4560;0;0;0;0;3;0;2855;0;0;0;0;4;0;4015;0;0;0;0;5;0;9225;2;0;0;0;0;0;6;0;7023;2;0;0;0;0;0;7;0;5575;0;0;0;0;8;0;5490;0;0;0;0;9;0;2942;0;0;0;0
23.10.17;21:35:00;1;465;9129;0;2;0;4560;0;0;0;0;3;0;2855;0;0;0;0;4;0;4015;0;0;0;0;5;0;9225;2;0;0;0;0;0;6;0;7023;2;0;0;0;0;0;7;0;5575;0;0;0;0;8;0;5490;0;0;0;0;9;0;2942;0;0;0;0
23.10.17;21:30:00;1;421;9089;0;2;0;4560;0;0;0;0;3;0;2855;0;0;0;0;4;0;4015;0;0;0;0;5;0;9225;2;0;0;0;0;0;6;0;7023;2;0;0;0;0;0;7;0;5575;0;0;0;0;8;0;5490;0;0;0;0;9;0;2942;0;0;0;0
23.10.17;21:25:00;1;422;9054;0;2;0;4560;0;0;0;0;3;0;2855;0;0;0;0;4;0;4015;0;0;0;0;5;0;9225;2;0;0;0;0;0;6;0;7023;2;0;0;0;0;0;7;0;5575;0;0;0;0;8;0;5490;0;0;0;0;9;0;2942;0;0;0;0
23.10.17;21:20:00;1;422;9019;0;2;0;4560;0;0;0;0;3;0;2855;0;0;0;0;4;0;4015;0;0;0;0;5;0;9225;2;0;0;0;0;0;6;0;7023;2;0;0;0;0;0;7;0;5575;0;0;0;0;8;0;5490;0;0;0;0;9;0;2942;0;0;0;0
23.10.17;21:15:00;1;421;8984;0;2;0;4560;0;0;0;0;3;0;2855;0;0;0;0;4;0;4015;0;0;0;0;5;0;9225;2;0;0;0;0;0;6;0;7023;2;0;0;0;0;0;7;0;5575;0;0;0;0;8;0;5490;0;0;0;0;9;0;2942;0;0;0;0
23.10.17;21:10:00;1;420;8949;0;2;0;4560;0;0;0;0;3;0;2855;0;0;0;0;4;0;4015;0;0;0;0;5;0;9225;2;0;0;0;0;0;6;0;7023;2;0;0;0;0;0;7;0;5575;0;0;0;0;8;0;5490;0;0;0;0;9;0;2942;0;0;0;0
23.10.17;21:05:00;1;420;8914;0;2;0;4560;0;0;0;0;3;0;2855;0;0;0;0;4;0;4015;0;0;0;0;5;0;9225;2;0;0;0;0;0;6;0;7023;2;0;0;0;0;0;7;0;5575;0;0;0;0;8;0;5490;0;0;0;0;9;0;2942;0;0;0;0
23.10.17;21:00:00;1;427;8878;0;2;0;4560;0;0;0;0;3;0;2855;0;0;0;0;4;0;4015;0;0;0;0;5;0;9225;2;0;0;0;0;0;6;0;7023;2;0;0;0;0;0;7;0;5575;0;0;0;0;8;0;5490;0;0;0;0;9;0;2942;0;0;0;0
23.10.17;20:55:00;1;564;8842;0;2;0;4560;0;0;0;0;3;0;2855;0;0;0;0;4;0;4015;0;0;0;0;5;0;9225;2;0;0;0;0;0;6;0;7023;2;0;0;0;0;0;7;0;5575;0;0;0;0;8;0;5490;0;0;0;0;9;0;2942;0;0;0;0
23.10.17;20:50:00;1;1086;8794;0;2;0;4560;0;0;0;0;3;0;2855;0;0;0;0;4;0;4015;0;0;0;0;5;0;9225;2;0;0;0;0;0;6;0;7023;2;0;0;0;0;0;7;0;5575;0;0;0;0;8;0;5490;0;0;0;0;9;0;2942;0;0;0;0
23.10.17;20:45:00;1;2614;8677;0;2;0;4560;0;0;0;0;3;0;2855;0;0;0;0;4;0;4015;0;0;0;0;5;0;9225;2;0;0;0;0;0;6;0;7023;2;0;0;0;0;0;7;0;5575;0;0;0;0;8;0;5490;0;0;0;0;9;0;2942;0;0;0;0
23.10.17;20:40:00;1;2621;8458;0;2;0;4560;0;0;0;0;3;0;2855;0;0;0;0;4;0;4015;0;0;0;0;5;0;9225;2;0;0;0;0;0;6;0;7023;2;0;0;0;0;0;7;0;5575;0;0;0;0;8;0;5490;0;0;0;0;9;0;2942;0;0;0;0
23.10.17;20:35:00;1;2351;8239;0;2;0;4560;0;0;0;0;3;0;2855;0;0;0;0;4;0;4015;0;0;0;0;5;0;9225;2;0;0;0;0;0;6;0;7023;2;0;0;0;0;0;7;0;5575;0;0;0;0;8;0;5490;0;0;0;0;9;0;2942;0;0;0;0
23.10.17;20:30:00;1;1818;8082;0;2;0;4560;0;0;0;0;3;0;2855;0;0;0;0;4;0;4015;0;0;0;0;5;0;9225;2;0;0;0;0;0;6;0;7023;2;0;0;0;0;0;7;0;5575;0;0;0;0;8;0;5490;0;0;0;0;9;0;2942;0;0;0;0
23.10.17;20:25:00;1;708;7928;0;2;0;4560;0;0;0;0;3;0;2855;0;0;0;0;4;0;4015;0;0;0;0;5;0;9225;2;0;0;0;0;0;6;0;7023;2;0;0;0;0;0;7;0;5575;0;0;0;0;8;0;5490;0;0;0;0;9;0;2942;0;0;0;0
23.10.17;20:20:00;1;756;7867;0;2;0;4560;0;0;0;0;3;0;2855;0;0;0;0;4;0;4015;0;0;0;0;5;0;9225;2;0;0;0;0;0;6;0;7023;2;0;0;0;0;0;7;0;5575;0;0;0;0;8;0;5490;0;0;0;0;9;0;2942;0;0;0;0
23.10.17;20:15:00;1;1287;7804;0;2;0;4560;0;0;0;0;3;0;2855;0;0;0;0;4;0;4015;0;0;0;0;5;0;9225;2;0;0;0;0;0;6;0;7023;2;0;0;0;0;0;7;0;5575;0;0;0;0;8;0;5490;0;0;0;0;9;0;2942;0;0;0;0
23.10.17;20:10:00;1;1880;7656;0;2;0;4560;0;0;0;0;3;0;2855;0;0;0;0;4;0;4015;0;0;0;0;5;0;9225;2;0;0;0;0;0;6;0;7023;2;0;0;0;0;0;7;0;5575;0;0;0;0;8;0;5490;0;0;0;0;9;0;2942;0;0;0;0
23.10.17;20:05:00;1;966;7522;0;2;0;4560;0;0;0;0;3;0;2855;0;0;0;0;4;0;4015;0;0;0;0;5;0;9225;2;0;0;0;0;0;6;0;7023;2;0;0;0;0;0;7;0;5575;0;0;0;0;8;0;5490;0;0;0;0;9;0;2942;0;0;0;0
23.10.17;20:00:00;1;1896;7421;0;2;0;4560;0;0;0;0;3;0;2855;0;0;0;0;4;0;4015;0;0;0;0;5;0;9225;2;0;0;0;0;0;6;0;7023;2;0;0;0;0;0;7;0;5575;0;0;0;0;8;0;5490;0;0;0;0;9;0;2942;0;0;0;0
23.10.17;19:55:00;1;2125;7276;0;2;0;4560;0;0;0;0;3;0;2855;0;0;0;0;4;0;4015;0;0;0;0;5;0;9225;2;0;0;0;0;0;6;0;7023;2;0;0;0;0;0;7;0;5575;0;0;0;0;8;0;5490;0;0;0;0;9;0;2942;0;0;0;0
23.10.17;19:50:00;1;2722;7093;0;2;0;4560;0;0;0;0;3;0;2855;0;0;0;0;4;0;4015;0;0;0;0;5;0;9225;2;0;0;0;0;0;6;0;7023;2;0;0;0;0;0;7;0;5575;0;0;0;0;8;0;5490;0;0;0;0;9;0;2942;0;0;0;0
23.10.17;19:45:00;1;975;6866;0;2;0;4560;0;0;0;0;3;0;2855;0;0;0;0;4;0;4015;0;0;0;0;5;0;9225;2;0;0;0;0;0;6;0;7023;2;0;0;0;0;0;7;0;5575;0;0;0;0;8;0;5490;0;0;0;0;9;0;2942;0;0;0;0
23.10.17;19:40:00;1;702;6802;0;2;0;4560;0;0;0;0;3;0;2855;0;0;0;0;4;0;4015;0;0;0;0;5;0;9225;2;0;0;0;0;0;6;0;7023;2;0;0;0;0;0;7;0;5575;0;0;0;0;8;0;5490;0;0;0;0;9;0;2942;0;0;0;0
23.10.17;19:35:00;1;693;6742;0;2;0;4560;0;0;0;0;3;0;2855;0;0;0;0;4;0;4015;0;0;0;0;5;0;9225;2;0;0;0;0;0;6;0;7023;2;0;0;0;0;0;7;0;5575;0;0;0;0;8;0;5490;0;0;0;0;9;0;2942;0;0;0;0
23.10.17;19:30:00;1;724;6684;0;2;0;4560;0;0;0;0;3;0;2855;0;0;0;0;4;0;4015;0;0;0;0;5;0;9225;2;0;0;0;0;0;6;0;7023;2;0;0;0;0;0;7;0;5575;0;0;0;0;8;0;5490;0;0;0;0;9;0;2942;0;0;0;0
23.10.17;19:25:00;1;796;6626;0;2;0;4560;0;0;0;0;3;0;2855;0;0;0;0;4;0;4015;0;0;0;0;5;0;9225;2;0;0;0;0;0;6;0;7023;2;0;0;0;0;0;7;0;5575;0;0;0;0;8;0;5490;0;0;0;0;9;0;2942;0;0;0;0
23.10.17;19:20:00;1;791;6559;0;2;0;4560;0;0;0;0;3;0;2855;0;0;0;0;4;0;4015;0;0;0;0;5;0;9225;2;0;0;0;0;0;6;0;7023;2;0;0;0;0;0;7;0;5575;0;0;0;0;8;0;5490;0;0;0;0;9;0;2942;0;0;0;0
23.10.17;19:15:00;1;697;6500;0;2;0;4560;0;0;0;0;3;0;2855;0;0;0;0;4;0;4015;0;0;0;0;5;0;9225;2;0;0;0;0;0;6;0;7023;2;0;0;0;0;0;7;0;5575;0;0;0;0;8;0;5490;0;0;0;0;9;0;2942;0;0;0;0
23.10.17;19:10:00;1;615;6442;0;2;0;4560;0;0;0;0;3;0;2855;0;0;0;0;4;0;4015;0;0;0;0;5;0;9225;2;0;0;0;0;0;6;0;7023;2;0;0;0;0;0;7;0;5575;0;0;0;0;8;0;5490;0;0;0;0;9;0;2942;0;0;0;0
23.10.17;19:05:00;1;631;6391;0;2;0;4560;0;0;0;0;3;0;2855;0;0;0;0;4;0;4015;0;0;0;0;5;0;9225;2;0;0;0;0;0;6;0;7023;2;0;0;0;0;0;7;0;5575;0;0;0;0;8;0;5490;0;0;0;0;9;0;2942;0;0;0;0
23.10.17;19:00:00;1;613;6339;0;2;0;4560;0;0;0;0;3;0;2855;0;0;0;0;4;0;4015;0;0;0;0;5;0;9225;2;0;0;0;0;0;6;0;7023;2;0;0;0;0;0;7;0;5575;0;0;0;0;8;0;5490;0;0;0;0;9;0;2942;0;0;0;0
23.10.17;18:55:00;1;608;6287;0;2;0;4560;0;0;0;0;3;0;2855;0;0;0;0;4;0;4015;0;0;0;0;5;0;9225;2;0;0;0;0;0;6;0;7023;2;0;0;0;0;0;7;0;5575;0;0;0;0;8;0;5490;0;0;0;0;9;0;2942;0;0;0;0
23.10.17;18:50:00;1;561;6236;0;2;0;4560;0;0;0;0;3;0;2855;0;0;0;0;4;0;4015;0;0;0;0;5;0;9225;2;0;0;0;0;0;6;0;7023;2;0;0;0;0;0;7;0;5575;0;0;0;0;8;0;5490;0;0;0;0;9;0;2942;0;0;0;0
23.10.17;18:45:00;1;509;6189;0;2;0;4560;0;0;0;0;3;0;2855;0;0;0;0;4;0;4015;0;0;0;0;5;0;9225;2;0;0;0;0;0;6;0;7023;2;0;0;0;0;0;7;0;5575;0;0;0;0;8;0;5490;0;0;0;0;9;0;2942;0;0;0;0
23.10.17;18:40:00;1;502;6147;0;2;0;4560;0;0;0;0;3;0;2855;0;0;0;0;4;0;4015;0;0;0;0;5;0;9225;2;0;0;0;0;0;6;0;7023;2;0;0;0;0;0;7;0;5575;0;0;0;0;8;0;5490;0;0;0;0;9;0;2942;0;0;0;0
23.10.17;18:35:00;1;501;6105;0;2;0;4560;0;0;0;0;3;0;2855;0;0;0;0;4;0;4015;0;0;0;0;5;0;9225;2;0;0;0;0;0;6;0;7023;2;0;0;0;0;0;7;0;5575;0;0;0;0;8;0;5490;0;0;0;0;9;0;2942;0;0;0;0
23.10.17;18:30:00;1;502;6063;0;2;0;4560;0;0;0;0;3;0;2855;0;0;0;0;4;0;4015;0;0;0;0;5;0;9225;2;0;0;0;0;0;6;0;7023;2;0;0;0;0;0;7;0;5575;0;0;0;0;8;0;5490;0;0;0;0;9;0;2942;0;0;0;0
23.10.17;18:25:00;1;535;6021;0;2;0;4560;0;0;0;0;3;0;2855;0;0;0;0;4;0;4015;0;0;0;0;5;0;9225;2;0;0;0;0;0;6;0;7023;2;0;0;0;0;0;7;0;5575;0;0;0;0;8;0;5490;0;0;0;0;9;0;2942;0;0;0;0
23.10.17;18:20:00;1;548;5976;0;2;0;4560;0;0;0;0;3;0;2855;0;0;0;0;4;0;4015;0;0;0;0;5;0;9225;2;0;0;0;0;0;6;0;7023;2;0;0;0;0;0;7;0;5575;0;0;0;0;8;0;5490;0;0;0;0;9;0;2942;0;0;0;0
23.10.17;18:15:00;1;573;5931;0;2;0;4560;0;0;0;0;3;0;2855;0;0;0;0;4;0;4015;0;0;0;0;5;0;9225;2;0;0;0;0;0;6;0;7023;2;0;0;0;0;0;7;0;5575;0;0;0;0;8;0;5490;0;0;0;0;9;0;2942;0;0;0;0
23.10.17;18:10:00;1;594;5883;0;2;0;4560;0;0;0;0;3;0;2855;0;0;188;14;4;0;4015;0;0;0;0;5;0;9225;0;0;0;0;0;0;6;0;7023;2;0;0;0;0;0;7;0;5575;0;0;0;0;8;0;5490;0;0;0;0;9;0;2942;0;0;0;0
23.10.17;18:05:00;1;678;5833;0;2;0;4560;0;0;224;14;3;0;2855;6;0;298;20;4;0;4015;0;0;22;5;5;0;9225;2;0;0;0;0;0;6;0;7023;2;0;0;0;0;0;7;0;5575;0;0;0;0;8;0;5490;0;0;0;0;9;0;2942;0;0;0;0
23.10.17;18:00:00;1;822;5773;0;2;0;4560;6;0;300;17;3;0;2855;6;0;345;20;4;0;4015;2;0;85;15;5;0;9225;0;0;0;0;0;3;6;0;7023;2;0;0;0;0;1;7;0;5575;0;0;0;0;8;0;5490;0;0;0;0;9;0;2942;0;0;0;0
23.10.17;17:55:00;1;2008;5702;0;2;0;4560;6;0;314;18;3;0;2855;6;0;378;20;4;0;4015;1;0;102;15;5;0;9225;23;10;0;180;326;26;6;0;7023;0;1;0;29;40;10;7;0;5575;0;0;0;0;8;0;5490;0;0;0;0;9;0;2942;0;0;0;0
23.10.17;17:50:00;1;2940;5531;0;2;0;4560;6;0;348;18;3;0;2855;4;1;415;20;4;0;4015;1;0;142;16;5;0;9225;23;8;0;375;215;27;6;0;7023;23;2;8;466;220;25;7;0;5575;0;0;236;15;8;0;5490;0;0;241;15;9;0;2942;6;0;298;15
23.10.17;17:45:00;1;3540;5315;0;2;0;4560;6;0;369;18;3;1;2855;3;5;420;21;4;0;4015;1;0;178;16;5;0;9225;23;11;0;402;180;27;6;0;7023;23;5;2;253;469;25;7;0;5575;6;0;330;19;8;0;5490;6;0;336;19;9;0;2942;6;0;354;15
23.10.17;17:40:00;1;3402;5020;0;2;0;4560;6;0;387;18;3;1;2855;6;3;470;21;4;0;4015;1;0;209;16;5;0;9225;8;9;0;417;460;28;6;0;7023;23;9;0;311;564;26;7;0;5575;6;0;391;20;8;0;5490;6;0;387;19;9;0;2942;6;0;427;15
23.10.17;17:35:00;1;2365;4741;0;2;0;4560;6;0;397;18;3;3;2855;6;10;450;21;4;0;4015;1;0;203;17;5;0;9225;23;11;0;424;680;28;6;0;7023;23;8;1;377;572;26;7;0;5575;6;2;413;20;8;0;5490;6;2;419;19;9;0;2942;3;3;429;15
23.10.17;17:30:00;1;623;4585;0;2;0;4560;6;0;403;18;3;1;2854;6;4;492;21;4;0;4015;3;0;210;17;5;55;9225;4;35;5;326;473;29;6;8;7023;23;7;5;500;548;26;7;0;5575;6;3;419;20;8;0;5490;6;1;437;20;9;0;2942;6;2;476;15
23.10.17;17:25:00;1;641;4533;0;2;0;4560;6;0;410;18;3;0;2854;6;6;497;21;4;0;4015;3;0;214;17;5;70;9220;4;56;12;326;472;29;6;55;7022;4;20;25;445;417;27;7;0;5575;6;0;468;20;8;0;5490;6;5;448;20;9;2;2942;6;3;479;16
23.10.17;17:20:00;1;665;4479;0;2;2;4560;6;9;405;18;3;1;2854;6;5;507;21;4;0;4015;3;0;207;17;5;82;9213;4;89;25;326;473;29;6;62;7018;4;27;29;445;417;27;7;1;5575;4;8;436;20;8;0;5490;6;0;479;20;9;0;2942;6;3;503;16
23.10.17;17:15:00;1;663;4423;0;2;5;4560;6;11;405;18;3;2;2854;3;15;476;21;4;0;4015;3;0;217;17;5;87;9207;4;80;22;326;472;29;6;68;7012;4;37;38;445;417;27;7;2;5575;3;8;458;20;8;2;5490;3;15;435;20;9;2;2942;6;4;506;16
23.10.17;17:10:00;1;688;4368;0;2;4;4560;6;9;405;19;3;1;2854;6;6;507;21;4;0;4015;1;0;229;17;5;48;9199;4;54;15;396;569;28;6;47;7007;4;23;25;464;478;26;7;2;5575;6;6;454;20;8;1;5490;6;6;464;20;9;0;2942;6;4;512;16
23.10.17;17:05:00;1;513;4315;0;2;0;4560;6;0;395;19;3;1;2854;6;3;466;21;4;0;4015;3;0;214;17;5;36;9196;1;39;2;347;498;29;6;0;7004;8;5;0;386;568;26;7;0;5575;6;2;408;21;8;0;5490;6;2;415;20;9;1;2942;3;3;426;16
23.10.17;17:00:00;1;434;4274;0;2;0;4560;6;0;403;19;3;1;2854;6;4;490;21;4;0;4015;3;0;210;18;5;0;9194;8;8;1;427;577;29;6;0;7004;8;8;2;543;577;27;7;0;5575;6;2;436;21;8;1;5490;6;1;439;21;9;0;2942;6;2;478;16
23.10.17;16:55:00;1;433;4232;0;2;0;4560;6;0;404;19;3;3;2854;6;5;489;21;4;0;4015;3;0;217;18;5;40;9194;1;21;0;344;306;29;6;0;7004;23;4;3;516;579;27;7;2;5575;6;8;414;21;8;2;5490;6;4;421;21;9;1;2942;6;3;481;16
23.10.17;16:50:00;1;467;4196;0;2;13;4560;6;22;398;19;3;1;2853;6;6;511;21;4;0;4015;3;0;199;18;5;74;9190;4;66;6;326;214;30;6;57;7003;4;44;24;445;221;28;7;0;5575;6;6;463;21;8;1;5489;6;6;466;21;9;2;2942;6;7;484;16
23.10.17;16:45:00;1;437;4155;0;2;54;4559;4;87;364;20;3;9;2853;3;22;490;21;4;7;4015;3;8;198;18;5;106;9184;4;75;11;326;214;30;6;79;6998;4;42;22;445;221;28;7;31;5575;6;58;380;21;8;30;5489;6;59;384;21;9;3;2941;6;8;529;16
23.10.17;16:40:00;1;444;4118;0;2;52;4554;4;86;359;20;3;4;2852;6;9;524;21;4;8;4014;3;8;198;18;5;99;9175;4;77;11;326;214;30;6;74;6991;4;55;27;445;221;28;7;40;5572;4;72;353;21;8;42;5487;4;71;353;21;9;3;2941;6;6;534;17
23.10.17;16:35:00;1;480;4081;0;2;91;4550;4;129;366;20;3;25;2852;6;40;524;22;4;49;4014;3;51;198;18;5;168;9167;4;126;22;379;214;30;6;117;6985;4;81;41;445;221;28;7;76;5569;4;110;426;22;8;73;5484;4;110;424;21;9;4;2941;4;9;542;17
23.10.17;16:30:00;1;510;4041;0;2;130;4542;4;166;374;20;3;75;2850;4;110;454;22;4;76;4010;3;79;199;18;5;207;9152;4;152;28;397;214;30;6;141;6975;4;80;40;445;221;28;7;122;5563;4;155;425;22;8;115;5478;4;151;421;21;9;32;2940;3;46;526;17
23.10.17;16:25:00;1;506;3998;0;2;161;4532;4;201;373;20;3;93;2844;4;133;479;22;4;110;4003;5;114;221;18;5;251;9135;4;223;43;395;214;30;6;168;6963;4;106;52;445;221;28;7;146;5553;4;184;407;22;8;147;5468;4;186;424;21;9;77;2938;4;108;500;17
23.10.17;16:20:00;1;497;3957;0;2;202;4518;4;241;378;20;3;119;2836;4;155;465;22;4;151;3994;5;157;222;18;5;309;9114;4;252;52;402;214;30;6;205;6949;4;148;75;444;221;28;7;172;5541;4;218;438;22;8;178;5456;4;225;437;21;9;97;2931;4;128;487;17
23.10.17;16:15:00;1;469;3915;0;2;150;4502;4;186;378;20;3;33;2826;6;51;544;22;4;108;3982;5;113;209;18;5;243;9088;4;209;41;399;214;30;6;165;6931;4;116;57;445;221;28;7;99;5527;4;145;466;22;8;109;5442;4;154;455;21;9;38;2923;3;48;526;17
23.10.17;16:10:00;1;479;3876;0;2;175;4488;4;214;378;20;3;102;2823;4;142;495;22;4;130;3972;5;136;221;18;5;280;9067;4;295;61;399;214;30;6;189;6917;4;115;59;445;221;28;7;133;5517;4;179;453;22;8;135;5431;4;177;462;21;9;26;2919;3;36;547;17
23.10.17;16:05:00;1;488;3835;0;2;192;4473;4;231;377;20;3;111;2815;4;154;491;22;4;143;3960;5;149;224;19;5;295;9044;4;249;52;394;214;30;6;197;6901;4;125;64;445;221;28;7;191;5505;4;221;430;22;8;188;5419;4;223;436;22;9;97;2916;4;129;483;17
23.10.17;16:00:00;1;350;3795;0;2;166;4457;4;206;377;20;3;75;2805;4;98;493;22;4;117;3948;5;122;210;19;5;242;9019;4;190;42;346;214;30;6;178;6884;4;129;64;445;221;28;7;165;5489;4;202;440;22;8;155;5403;4;199;463;22;9;28;2908;3;38;541;17
23.10.17;15:55:00;1;190;3768;0;2;100;4443;4;136;370;20;3;9;2799;6;15;536;22;4;55;3938;3;58;198;19;5;153;8999;4;143;27;326;214;30;6;120;6870;4;81;42;444;221;28;7;82;5475;4;125;449;22;8;84;5390;4;127;456;22;9;7;2905;6;13;548;17
23.10.17;15:50:00;1;189;3753;0;2;86;4434;4;119;365;20;3;15;2798;6;25;509;22;4;41;3933;3;42;198;19;5;140;8986;4;109;19;331;214;30;6;107;6860;4;58;30;445;221;28;7;65;5468;4;103;426;22;8;67;5382;4;105;423;22;9;5;2905;6;9;546;17
23.10.17;15:45:00;1;242;3737;0;2;118;4427;4;158;374;20;3;53;2797;6;87;511;23;4;72;3930;3;75;199;19;5;200;8974;4;157;28;398;214;30;6;140;6851;4;99;51;445;221;28;7;110;5462;4;144;415;22;8;107;5377;4;146;445;22;9;23;2904;6;36;528;18
23.10.17;15:40:00;1;296;3716;0;2;109;4417;4;146;361;21;3;59;2793;4;99;476;23;4;59;3924;3;61;198;19;5;188;8958;4;177;31;393;214;30;6;130;6839;4;85;43;445;221;28;7;91;5453;4;124;389;22;8;89;5368;4;129;441;22;9;7;2903;6;12;552;18
23.10.17;15:35:00;1;300;3691;0;2;135;4408;4;172;368;21;3;73;2788;4;115;491;23;4;92;3919;3;96;204;19;5;226;8942;4;217;41;399;214;30;6;154;6828;4;104;54;445;221;28;7;116;5446;4;158;449;22;8;119;5361;4;163;430;22;9;55;2902;6;79;463;18
23.10.17;15:30:00;1;302;3666;0;2;133;4397;4;171;369;21;3;75;2782;4;113;466;23;4;83;3912;3;87;199;19;5;221;8923;4;194;36;399;214;30;6;154;6815;4;87;44;445;221;28;7;110;5436;4;157;434;22;8;114;5351;4;155;455;22;9;64;2898;4;91;428;19
23.10.17;15:25:00;1;269;3641;0;2;150;4386;4;188;373;21;3;86;2776;4;124;487;23;4;104;3905;3;108;217;19;5;252;8904;4;228;45;395;214;30;6;171;6802;4;116;59;445;221;28;7;130;5426;4;167;420;22;8;133;5341;4;169;432;22;9;67;2892;4;98;467;19
23.10.17;15:20:00;1;259;3618;0;2;235;4373;4;273;378;21;3;136;2769;4;180;511;23;4;179;3896;5;186;228;19;5;351;8883;4;291;62;407;214;30;6;232;6787;4;165;81;445;221;28;7;222;5416;4;259;451;22;8;216;5330;4;258;464;22;9;113;2886;4;147;518;19
23.10.17;15:15:00;1;258;3596;0;2;210;4354;4;250;372;21;3;120;2758;4;164;511;23;4;155;3882;5;162;226;19;5;298;8854;4;262;55;401;214;30;6;204;6768;4;134;68;445;221;28;7;223;5398;4;251;467;22;8;218;5312;4;258;465;22;9;119;2877;4;150;503;19
23.10.17;15:10:00;1;218;3575;0;2;154;4337;4;193;375;21;3;87;2748;4;129;488;23;4;100;3869;5;104;216;20;5;243;8830;4;211;41;392;214;30;6;166;6751;4;103;53;445;221;28;7;146;5379;4;178;429;22;8;143;5295;4;176;454;22;9;75;2867;4;106;470;19
23.10.17;15:05:00;1;189;3556;0;2;175;4324;4;215;370;22;3;100;2740;4;142;495;23;4;124;3861;5;130;219;20;5;276;8809;4;247;51;398;214;30;6;188;6737;4;139;71;445;221;28;7;155;5367;4;197;424;22;8;162;5282;4;198;437;22;9;83;2861;4;113;473;19
23.10.17;15:00:00;1;190;3541;0;2;202;4309;4;241;376;22;3;114;2732;4;157;506;24;4;143;3850;5;149;224;20;5;318;8786;4;278;60;405;218;30;6;213;6722;4;137;70;445;221;29;7;195;5354;4;238;430;23;8;194;5269;4;235;452;22;9;104;2854;4;138;496;19
23.10.17;14:55:00;1;190;3525;0;2;269;4292;4;308;372;22;3;165;2722;4;207;499;24;4;215;3838;5;224;228;20;5;495;8759;4;362;157;407;415;30;6;274;6704;4;184;92;445;221;29;7;265;5337;4;309;459;23;8;275;5253;4;314;462;22;9;149;2845;4;180;504;20
23.10.17;14:50:00;1;203;3509;0;2;212;4270;4;251;370;22;3;124;2709;4;168;494;24;4;162;3821;5;168;227;20;5;489;8719;4;316;197;399;631;30;6;287;6682;4;149;136;445;386;29;7;186;5316;4;227;459;23;8;189;5231;4;232;451;23;9;101;2833;4;132;505;20
23.10.17;14:45:00;1;231;3491;0;2;244;4253;4;287;378;23;3;147;2699;4;188;501;24;4;191;3808;5;199;227;20;5;542;8678;4;338;216;404;622;30;6;367;6657;4;184;219;448;541;29;7;246;5301;4;293;468;23;8;239;5215;4;291;473;23;9;136;2825;4;171;513;20
23.10.17;14:40:00;1;233;3472;0;2;314;4233;4;357;393;23;3;188;2687;4;231;492;24;4;255;3792;5;265;230;20;5;672;8634;4;416;278;409;631;30;6;502;6627;4;256;266;566;553;29;7;340;5281;4;377;459;23;8;328;5196;4;369;473;23;9;176;2814;4;212;508;20
23.10.17;14:35:00;1;230;3452;0;2;471;4208;4;520;396;23;3;290;2672;4;339;503;24;4;404;3771;5;421;239;21;5;981;8576;4;594;414;416;653;30;6;735;6584;4;377;374;587;555;29;7;500;5253;4;536;467;23;8;492;5169;4;544;464;23;9;263;2800;4;304;524;20
23.10.17;14:30:00;1;190;3434;0;2;313;4168;4;356;382;23;3;191;2647;4;235;503;24;4;249;3738;5;259;231;21;5;616;8493;4;395;263;402;624;30;6;416;6523;4;221;221;488;470;29;7;357;5212;4;401;463;23;8;361;5128;4;408;471;23;9;196;2778;4;233;517;20
23.10.17;14:25:00;1;190;3418;0;2;257;4141;4;297;374;23;3;152;2631;4;196;499;25;4;197;3716;5;205;225;21;5;528;8443;4;352;224;404;628;31;6;401;6489;4;203;213;567;546;29;7;285;5181;4;328;474;23;8;290;5097;4;331;467;23;9;156;2761;4;190;505;21
23.10.17;14:20:00;1;191;3402;0;2;467;4120;4;517;401;24;3;287;2618;4;337;510;25;4;388;3700;5;404;236;21;5;988;8398;4;591;411;418;668;31;6;728;6455;4;358;363;579;563;29;7;499;5157;4;547;470;23;8;490;5073;4;540;469;23;9;256;2748;4;296;523;21
23.10.17;14:15:00;1;191;3386;0;2;925;4082;4;990;410;25;3;580;2595;4;641;525;26;4;785;3668;5;818;243;22;5;1730;8314;4;1005;754;425;695;31;6;1286;6392;4;652;637;597;569;29;7;1144;5117;4;1220;479;23;8;1137;5033;4;1202;483;23;9;600;2727;4;659;544;22
23.10.17;14:10:00;1;191;3370;0;2;1090;4004;4;1160;417;24;3;693;2546;4;759;523;25;4;944;3602;5;983;247;21;5;2024;8164;4;1181;882;428;712;31;6;1530;6280;4;784;765;604;576;29;7;1379;5021;4;1459;495;23;8;1378;4938;4;1459;494;23;9;740;2677;4;807;538;21
23.10.17;14:05:00;1;191;3354;0;2;959;3913;4;1023;405;24;3;615;2488;4;679;518;25;4;834;3523;5;869;245;21;5;1823;7996;4;1066;801;425;691;31;6;1394;6152;4;720;704;590;578;29;7;1133;4906;4;1201;482;23;8;1150;4823;4;1214;479;23;9;620;2615;4;678;528;21
23.10.17;14:00:00;1;218;3338;0;2;755;3832;4;814;409;24;3;476;2436;4;531;524;25;4;645;3453;5;671;239;21;5;1443;7849;4;838;615;423;678;31;6;1102;6039;4;567;564;596;581;29;7;754;4809;4;812;473;23;8;756;4725;4;812;478;23;9;402;2563;4;449;524;21